+ View the NASA Portal
+ Center for Near-Earth Object Studies
IMPORTANT:
The SSD Announcement email list is now available. Major changes are coming in the near future, including possible hostname and/or URL changes. To be notified of such changes, subscribe to this email list.
Please visit
this page
for more details.
Don't show this message again
JPL Small-Body Database Browser
Search:
[
help
]
344222 (2001 RK106)
Classification:
Main-belt Asteroid
SPK-ID:
2344222
[
Ephemeris
|
Orbit Diagram
|
Orbital Elements
|
Mission Design
|
Physical Parameters
|
Discovery Circumstances
|
Close-Approach Data
]
[ show orbit diagram ]
Orbital Elements at Epoch 2458600.5 (2019-Apr-27.0) TDB
Reference:
JPL 8
(heliocentric ecliptic J2000)
Element
Value
Uncertainty (1-sigma)
Units
e
.1912130858451433
1.264e-07
a
2.963189244751598
6.3354e-08
au
q
2.396588685319506
3.371e-07
au
i
7.651000490873525
8.4936e-06
deg
node
169.0230166336817
8.4277e-05
deg
peri
161.4948837559535
9.7466e-05
deg
M
168.2210731569484
6.042e-05
deg
t
p
2457729.906524028332
(2016-Dec-07.40652403)
0.00028892
TDB
period
1863.105765930937
5.10
5.975e-05
1.636e-07
d
yr
n
.1932257451954796
6.1968e-09
deg/d
Q
3.529789804183691
7.5468e-08
au
Orbit Determination Parameters
# obs. used (total)
108
data-arc span
6322 days (17.31 yr)
first obs. used
2001-09-12
last obs. used
2019-01-03
planetary ephem.
DE431
SB-pert. ephem.
SB431-N16
condition code
0
norm. resid. RMS
.57675
source
ORB
producer
Otto Matic
solution date
2019-Jul-13 15:08:25
Additional Information
Earth MOID
= 1.38665 au
Jupiter MOID
= 1.86529 au
T_jup
= 3.224
[ show covariance matrix ]
[
Ephemeris
|
Orbit Diagram
|
Orbital Elements
|
Mission Design
|
Physical Parameters
|
Discovery Circumstances
|
Close-Approach Data
]
Physical Parameter Table
Parameter
Symbol
Value
Units
Sigma
Reference
Notes
absolute magnitude
H
16.4
n/a
MPO248724
344222 (2001 RK106)
Discovered 2001-Sep-12 by LINEAR at Socorro
Reference:
20121128/Numbers.arc
Last Updated:
2012-12-03
[ show close-approach data ]
Alternate Designations
2001 RK106
= 2006 QZ92
[
Ephemeris
|
Orbit Diagram
|
Orbital Elements
|
Mission Design
|
Physical Parameters
|
Discovery Circumstances
|
Close-Approach Data
]
2019-Dec-08 11:39 UT
(server date/time)
Site Manager:
Ryan S. Park
Webmaster
:
Alan B. Chamberlin